Terminal Aerodrome Forecast
Issued by NWS Los Angeles, CA

Home | Current Version | Previous Version | Text Only | Print | Product List | Glossary On
Versions: 1 2 3 4 5 6 7 8 9 10 11 12 13
105
FTUS46 KLOX 111127
TAFSMX
TAF
KSMX 111127Z 1112/1212 VRB03KT P6SM SKC
     FM112100 32007KT P6SM SKC
     FM120300 VRB03KT P6SM SKC=

USA.gov is the U.S. government's official web portal to all federal, state and local government web resources and services.